Big Bear City, CA

12:46 AM PST on December 16, 2019 (GMT -0800)
Big Bear City

Weather History for KL35 - November, 2019

Change the Weather History Date:

Saturday, November 16, 2019

  Actual Average (WUND) Record (WUND)
Temperature  
Mean Temperature 42 °F -  
Max Temperature 59 °F - - (-1)
Min Temperature 26 °F - - (-1)
Degree Days  
Heating Degree Days 22    
Moisture  
Dew Point 16 °F    
Average Humidity 41    
Maximum Humidity 64    
Minimum Humidity 18    
Precipitation  
Precipitation 0.00 in - - ()
Sea Level Pressure  
Sea Level Pressure 30.27 in    
Wind  
Wind Speed 2 mph ()    
Max Wind Speed 10 mph    
Max Gust Speed -    
Visibility 9.4 miles    
Events      
Averages and records for this station are not official NWS values.
T = Trace of Precipitation, MM = Missing Value Source: Averaged Metar Reports

Daily Weather History Graph

Daily Weather History Graph

Search for Another Location

Airport or City:

Astronomy

Nov. 16, 2019 Rise Set
Actual Time 6:21 AM PST 4:42 PM PST
Civil Twilight 5:54 AM PST 5:09 PM PST
Nautical Twilight 5:24 AM PST 5:39 PM PST
Astronomical Twilight 4:54 AM PST 6:09 PM PST
Moon 8:24 PM PST 10:14 AM PST
Length of Visible Light 11h 14m
Length of Day
10h 21m
Waning Gibbous, 81% of the Moon is Illuminated
Nov 16
Waning Gibbous
Nov 19
Last Quarter
Nov 26
New
Dec 3
First Quarter
Dec 11
Full

Hourly Weather History & Observations

Time (PST) Temp. Windchill Dew Point Humidity Pressure Visibility Wind Dir Wind Speed Gust Speed Precip Events Conditions
12:15 AM 30.2 °F - 14.0 °F 51% 30.24 in 10.0 mi Calm Calm - N/A   Clear
12:55 AM 30.2 °F - 14.0 °F 51% 30.24 in 10.0 mi Calm Calm - N/A   Clear
1:15 AM 28.4 °F - 14.0 °F 55% 30.25 in 10.0 mi Calm Calm - N/A   Clear
1:35 AM 28.4 °F - 14.0 °F 55% 30.25 in 7.0 mi Calm Calm - N/A   Clear
1:55 AM 30.2 °F - 15.8 °F 55% 30.24 in 7.0 mi Calm Calm - N/A   Clear
2:15 AM 28.4 °F - 14.0 °F 55% 30.24 in 7.0 mi Calm Calm - N/A   Clear
2:35 AM 28.4 °F - 14.0 °F 55% 30.24 in 7.0 mi Calm Calm - N/A   Clear
2:55 AM 28.4 °F - 14.0 °F 55% 30.23 in 10.0 mi Calm Calm - N/A   Clear
3:15 AM 28.4 °F - 14.0 °F 55% 30.23 in 10.0 mi Calm Calm - N/A   Clear
3:35 AM 26.6 °F - 14.0 °F 59% 30.23 in 10.0 mi Calm Calm - N/A   Clear
3:55 AM 26.6 °F - 14.0 °F 59% 30.23 in 10.0 mi Calm Calm - N/A   Clear
4:15 AM 26.6 °F - 15.8 °F 64% 30.23 in 7.0 mi Calm Calm - N/A   Clear
4:35 AM 26.6 °F - 14.0 °F 59% 30.23 in 7.0 mi Calm Calm - N/A   Clear
4:55 AM 26.6 °F - 14.0 °F 59% 30.24 in 10.0 mi Calm Calm - N/A   Clear
5:15 AM 26.6 °F - 14.0 °F 59% 30.24 in 10.0 mi Calm Calm - N/A   Clear
5:35 AM 26.6 °F - 14.0 °F 59% 30.25 in 10.0 mi Calm Calm - N/A   Clear
5:55 AM 26.6 °F - 14.0 °F 59% 30.25 in 10.0 mi Calm Calm - N/A   Clear
6:15 AM 26.6 °F - 14.0 °F 59% 30.26 in 10.0 mi Calm Calm - N/A   Clear
6:35 AM 26.6 °F 22.6 °F 14.0 °F 59% 30.27 in 10.0 mi East 3.5 mph - N/A   Clear
6:55 AM 26.6 °F - 14.0 °F 59% 30.27 in 7.0 mi Calm Calm - N/A   Clear
7:15 AM 28.4 °F - 15.8 °F 59% 30.27 in 5.0 mi Calm Calm - N/A   Haze
7:35 AM 32.0 °F - 15.8 °F 51% 30.28 in 10.0 mi Calm Calm - N/A   Clear
7:55 AM 32.0 °F - 17.6 °F 55% 30.28 in 7.0 mi Calm Calm - N/A   Clear
8:15 AM 35.6 °F - 17.6 °F 48% 30.28 in 4.0 mi Calm Calm - N/A   Haze
8:35 AM 41.0 °F 39.0 °F 17.6 °F 39% 30.29 in 10.0 mi ENE 3.5 mph - N/A   Clear
8:55 AM 44.6 °F 43.1 °F 19.4 °F 37% 30.28 in 10.0 mi East 3.5 mph - N/A   Clear
9:15 AM 51.8 °F - 19.4 °F 28% 30.29 in 10.0 mi East 5.8 mph - N/A   Clear
9:35 AM 53.6 °F - 19.4 °F 26% 30.30 in 10.0 mi ENE 9.2 mph - N/A   Clear
9:55 AM 53.6 °F - 19.4 °F 26% 30.30 in 10.0 mi East 6.9 mph - N/A   Clear
10:15 AM 53.6 °F - 19.4 °F 26% 30.30 in 10.0 mi East 8.1 mph - N/A   Clear
10:35 AM 53.6 °F - 19.4 °F 26% 30.29 in 10.0 mi ENE 8.1 mph - N/A   Clear
10:55 AM 55.4 °F - 19.4 °F 25% 30.28 in 10.0 mi ENE 9.2 mph - N/A   Clear
11:15 AM 55.4 °F - 19.4 °F 25% 30.28 in 10.0 mi East 9.2 mph - N/A   Clear
11:35 AM 55.4 °F - 19.4 °F 25% 30.27 in 10.0 mi ENE 10.4 mph - N/A   Clear
11:55 AM 55.4 °F - 19.4 °F 25% 30.26 in 10.0 mi East 5.8 mph - N/A   Clear
12:15 PM 55.4 °F - 17.6 °F 23% 30.25 in 10.0 mi East 5.8 mph - N/A   Clear
12:35 PM 55.4 °F - 17.6 °F 23% 30.24 in 10.0 mi ENE 9.2 mph - N/A   Clear
12:55 PM 57.2 °F - 17.6 °F 21% 30.24 in 10.0 mi East 9.2 mph - N/A   Clear
1:15 PM 57.2 °F - 17.6 °F 21% 30.23 in 10.0 mi East 8.1 mph - N/A   Clear
1:35 PM 59.0 °F - 15.8 °F 19% 30.23 in 10.0 mi ENE 5.8 mph - N/A   Clear
1:55 PM 55.4 °F - 15.8 °F 21% 30.23 in 10.0 mi NE 8.1 mph - N/A   Clear
2:15 PM 57.2 °F - 14.0 °F 18% 30.23 in 10.0 mi NE 8.1 mph - N/A   Clear
2:35 PM 55.4 °F - 15.8 °F 21% 30.23 in 10.0 mi NE 6.9 mph - N/A   Clear
2:55 PM 55.4 °F - 17.6 °F 23% 30.24 in 10.0 mi NE 3.5 mph - N/A   Clear
3:15 PM 55.4 °F - 17.6 °F 23% 30.24 in 10.0 mi NE 6.9 mph - N/A   Clear
3:35 PM 55.4 °F - 17.6 °F 23% 30.25 in 10.0 mi East 5.8 mph - N/A   Clear
3:55 PM 53.6 °F - 17.6 °F 24% 30.26 in 10.0 mi NNE 6.9 mph - N/A   Clear
4:15 PM 53.6 °F - 17.6 °F 24% 30.27 in 10.0 mi North 4.6 mph - N/A   Clear
4:35 PM 51.8 °F - 15.8 °F 24% 30.26 in 10.0 mi ENE 4.6 mph - N/A   Clear
4:55 PM 50.0 °F - 17.6 °F 28% 30.27 in 10.0 mi Calm Calm - N/A   Clear
5:15 PM 44.6 °F - 17.6 °F 34% 30.28 in 10.0 mi Calm Calm - N/A   Clear
5:35 PM 42.8 °F - 15.8 °F 34% 30.28 in 10.0 mi Calm Calm - N/A   Clear
5:55 PM 41.0 °F - 15.8 °F 36% 30.28 in 10.0 mi Calm Calm - N/A   Clear
6:15 PM 39.2 °F - 15.8 °F 39% 30.28 in 10.0 mi Calm Calm - N/A   Clear
6:35 PM 39.2 °F - 14.0 °F 36% 30.29 in 10.0 mi Calm Calm - N/A   Clear
6:55 PM 37.4 °F - 15.8 °F 41% 30.29 in 10.0 mi Calm Calm - N/A   Clear
7:15 PM 35.6 °F - 14.0 °F 41% 30.30 in 10.0 mi Calm Calm - N/A   Clear
7:35 PM 33.8 °F - 14.0 °F 44% 30.30 in 10.0 mi Calm Calm - N/A   Clear
7:55 PM 33.8 °F - 14.0 °F 44% 30.30 in 10.0 mi Calm Calm - N/A   Clear
8:15 PM 32.0 °F - 14.0 °F 48% 30.30 in 10.0 mi Calm Calm - N/A   Clear
8:35 PM 32.0 °F - 14.0 °F 48% 30.30 in 10.0 mi Calm Calm - N/A   Clear
8:55 PM 32.0 °F - 14.0 °F 48% 30.31 in 10.0 mi Calm Calm - N/A   Clear
9:15 PM 32.0 °F - 14.0 °F 48% 30.31 in 10.0 mi Calm Calm - N/A   Clear
9:35 PM 32.0 °F - 14.0 °F 48% 30.31 in 10.0 mi Calm Calm - N/A   Clear
9:55 PM 32.0 °F - 14.0 °F 48% 30.31 in 10.0 mi Calm Calm - N/A   Clear
10:15 PM 30.2 °F - 14.0 °F 51% 30.31 in 10.0 mi Calm Calm - N/A   Clear
10:35 PM 32.0 °F - 14.0 °F 48% 30.32 in 10.0 mi Calm Calm - N/A   Clear
10:55 PM 30.2 °F - 14.0 °F 51% 30.31 in 7.0 mi Calm Calm - N/A   Clear
11:15 PM 30.2 °F - 14.0 °F 51% 30.31 in 7.0 mi Calm Calm - N/A   Clear
11:35 PM 30.2 °F - 14.0 °F 51% 30.31 in 10.0 mi Calm Calm - N/A   Clear
11:55 PM 28.4 °F - 14.0 °F 55% 30.31 in 10.0 mi Calm Calm - N/A   Clear